Regional Weather Roundup
Issued by NWS

Home | Current Version | Previous Version | Text Only | Print | Product List | Glossary On
Versions: 1 2 3 4 5 6 7 8 9 10 11 12 13 14 15 16 17 18 19 20 21 22 23 24 25 26 27 28 29 30 31 32 33 34 35 36 37 38 39 40 41 42 43 44 45 46 47 48 49 50
000
ASUS43 KIND 290609
RWRIN

WEATHER ROUNDUP FOR INDIANA
NATIONAL WEATHER SERVICE INDIANAPOLIS IN
100 AM EST THU JAN 29 2015

NOTE: "FAIR" INDICATES FEW OR NO CLOUDS BELOW 12,000 FEET WITH NO
SIGNIFICANT WEATHER AND/OR OBSTRUCTIONS TO VISIBILITY.

* - STATION DOES NOT REPORT WEATHER SUCH AS PRECIPITATION OR FOG.

+ - STATION NOT QUALITY CONTROLLED BY THE NATIONAL WEATHER SERVICE.
    USE DATA WITH CAUTION...ESPECIALLY DEWPOINT AND RELATIVE
    HUMIDITY OBSERVATIONS.

INZ001>003-010>013-019-020-290700-
NORTHWEST INDIANA

CITY           SKY/WX    TMP DP  RH WIND       PRES   REMARKS
GARY /AIRPORT/ CLOUDY    36  18  48 S14G22    29.85F
KNOX *+        CLOUDY    33   7  34 SE16G23   29.89F WCI  22
LA PORTE +     CLOUDY    34  23  64 S10G18    29.89F WCI  26
6HR MIN TEMP:  31; 6HR MAX TEMP:  34;

MICHIGAN CITY+ CLOUDY    32  18  55 S10G20    29.87F WCI  24
MONTICELLO +   CLOUDY    33  22  62 S9        29.93F WCI  26
6HR MIN TEMP:  32; 6HR MAX TEMP:  34;

RENSSELAER +   DRIZZLE   34  28  80 SE15      29.89F WCI  24
VALPARAISO     MIX PCPN  33  22  63 SE15      29.87F WCI  23
6HR MIN TEMP:  30; 6HR MAX TEMP:  33; 6HR PCP: TRACE;


$$

LMZ046-743>745-290700-
SOUTHERN LAKE MICHIGAN

STATION/POSITION TIME  TEMP WIND        PRES
                       AIR  DIR/SP/G
                 (UTC) (F)  (DEG/KT/KT) (MB)
MICHIGAN CITY    0600   34  140/ 15/ 22   N/A

$$

INZ004-005-014>016-021>024-290700-
NORTH CENTRAL INDIANA

CITY           SKY/WX    TMP DP  RH WIND       PRES   REMARKS
GOSHEN         CLOUDY    30  20  66 SE15      29.95F WCI  19
6HR MIN TEMP:  26; 6HR MAX TEMP:  30;

LOGANSPORT +   CLOUDY    32  23  69 S14       29.95F WCI  22
PERU/GRISSOM   CLOUDY    33  22  65 S14       29.95F WCI  23
6HR MIN TEMP:  29; 6HR MAX TEMP:  33;

ROCHESTER +    CLOUDY    34  23  64 S9        29.95F WCI  26
SOUTH BEND     MIX PCPN  32  22  66 S14       29.93F WCI  22
6HR MIN TEMP:  28; 6HR MAX TEMP:  32; 6HR PCP: TRACE;

WARSAW +       CLOUDY    30  21  69 S5        29.96F WCI  25

$$

INZ006>009-017-018-025>027-290700-
NORTHEAST INDIANA

CITY           SKY/WX    TMP DP  RH WIND       PRES   REMARKS
ANGOLA *+      PTCLDY    25  19  80 S10       29.99F WCI  15
AUBURN +       MOCLDY    28  19  69 SE5       30.01F WCI  23
FORT WAYNE     CLOUDY    30  21  69 SE13      30.00F WCI  20
6HR MIN TEMP:  25; 6HR MAX TEMP:  30;

HUNTINGTON +   CLOUDY    31  17  57 S8        29.99S WCI  23
6HR MIN TEMP:  26; 6HR MAX TEMP:  31;


$$

INZ028-029-035-036-043>045-051>053-290700-
WEST CENTRAL INDIANA

CITY           SKY/WX    TMP DP  RH WIND       PRES   REMARKS
CRAWFORDSVL +  CLOUDY    34  15  47 S13       29.94F WCI  25
6HR MIN TEMP:  31; 6HR MAX TEMP:  34;

GREENCASTLE +  CLOUDY    34  18  51 S13       29.97F WCI  25
LAFAYETTE      CLOUDY    35  19  52 S8        29.92F WCI  29
6HR MIN TEMP:  32; 6HR MAX TEMP:  35;

TERRE HAUTE    CLOUDY    38  23  55 S15       29.95F
6HR MIN TEMP:  34; 6HR MAX TEMP:  38;


$$

INZ030>032-037>040-046>048-054>057-064-065-290700-
CENTRAL INDIANA

CITY           SKY/WX    TMP DP  RH WIND       PRES   REMARKS
CP ATTERBURY + CLOUDY    34  19  55 S14       30.02F WCI  24
INDIANAPOLIS   CLOUDY    32  18  56 SE12      29.99F WCI  23
6HR MIN TEMP:  30; 6HR MAX TEMP:  32;

-EAGLE CREEK   CLOUDY    33  18  53 SE10      29.98F WCI  25
6HR MIN TEMP:  32; 6HR MAX TEMP:  33;

KOKOMO *+      CLOUDY    32  21  64 S20G26    29.96F WCI  20
6HR MIN TEMP:  30; 6HR MAX TEMP:  32;

MARION +       CLOUDY    32  21  64 S15       29.98S WCI  22
6HR MIN TEMP:  -2; 6HR MAX TEMP:  46;

MT COMFORT *+  CLOUDY    34  14  44 S13G21    29.99F WCI  25
SHELBYVILLE    CLOUDY    35  22  58 S16       30.00F WCI  25
6HR MIN TEMP:  33; 6HR MAX TEMP:  35;

ZIONSVILLE +   CLOUDY    34  19  54 S16G22    29.96F WCI  23
6HR MIN TEMP:  32; 6HR MAX TEMP:  34;


$$

INZ033-034-041-042-049-050-058-059-290700-
EAST CENTRAL INDIANA

CITY           SKY/WX    TMP DP  RH WIND       PRES   REMARKS
MUNCIE         CLOUDY    33  20  58 S17G31    29.97F WCI  22
6HR MIN TEMP:  30; 6HR MAX TEMP:  33;


$$

INZ060-061-067>069-081>083-085>088-290700-
SOUTHWEST INDIANA

CITY           SKY/WX    TMP DP  RH WIND       PRES   REMARKS
EVANSVILLE     CLOUDY    44  26  49 S13       30.00F
6HR MIN TEMP:  39; 6HR MAX TEMP:  44;

HUNTINGBURG *+ CLOUDY    39  21  48 S8        30.01F
6HR MIN TEMP:  36; 6HR MAX TEMP:  39;

WASHINGTON +   CLOUDY    38  20  48 S15       29.97F
6HR MIN TEMP:  34; 6HR MAX TEMP:  38;


$$

INZ062-063-066-070>080-084-089>092-290700-
SOUTH CENTRAL AND SOUTHEAST INDIANA

CITY           SKY/WX    TMP DP  RH WIND       PRES   REMARKS
BLOOMINGTON    CLOUDY    35  18  49 SE10      29.98F WCI  27
6HR MIN TEMP:  34; 6HR MAX TEMP:  35;


$$




USA.gov is the U.S. government's official web portal to all federal, state and local government web resources and services.